(307144) = 2002 CP227 = 2008 YA22

Discovered at Palomar on 2002-02-06 by NEAT.

Orbit

Orbit type: Main Belt

Note: WebGL enabled browser required.

epoch2023-02-25.0
epoch JD2460000.5
perihelion date2019-11-12.71280
perihelion JD2458800.21280
argument of perihelion (°)216.56956
ascending node (°)294.24928
inclination (°)5.92443
eccentricity0.0535404
perihelion distance (AU)2.1935978
Tisserand w.r.t. Jupiter3.6
ΔV w.r.t. Earth (km/sec)9.4
semimajor axis (AU)2.3176877
mean anomaly (°)335.27923
mean daily motion (°/day)0.27933250
aphelion distance (AU)2.442
period (years)3.53
P-vector [x]-0.87018102
P-vector [y]0.47300002
P-vector [z]0.13804335
Q-vector [x]-0.48366143
Q-vector [y]-0.76644664
Q-vector [z]-0.42264780
absolute magnitude17.16
phase slope0.15
uncertainty0
referenceMPO 730443
observations used360
oppositions11
arc length (days)7657
first opposition used2002
last opposition used2023
residual rms (arc-secs)0.74
perturbers coarse indicatorM-v
perturbers precise indicator003Ek
first observation date used2002-02-06.0
last observation date used2023-01-24.0
computer nameMPCLINUX
JD of orbit computation2456937.506154
perihelion JD uncertainty (days)2.5246E-04
argument of perihelion uncertainty (°)8.4340E-05
ascending node uncertainty (°)5.3376E-05
inclination uncertainty (°)5.5138E-06
eccentricity uncertainty 6.5909E-08
perihelion distance uncertainty (AU)1.4544E-07
Minimum Orbit Intersection Distances (in AU)
for orbit epoch: 2460000.5, reference: E2023-BC6
Mercury1.81573
Venus1.48178
Earth1.2083
Mars0.55555
Jupiter2.56279
Saturn6.80414
Uranus16.255
Neptune27.4747

Observations

370 total observations over interval: 2002 02 06.30605 – 2023 01 24.627345
These data are available for download (format description).

Date (UT) J2000 RA J2000 Dec Magn Location Ref
2002 02 06.30605 09 16 21.08 +11 24 32.1 20.3   644 – Palomar Mountain/NEAT MPS 52756
2002 02 06.32712 09 16 19.64 +11 24 33.8 20.5   644 – Palomar Mountain/NEAT MPS 52756
2002 02 06.34825 09 16 18.18 +11 24 35.7 19.9   644 – Palomar Mountain/NEAT MPS 52756
2002 02 08.50207 09 13 56.67 +11 28 15.0 20.9   608 – Haleakala-AMOS MPS 52756
2002 02 08.51261 09 13 55.91 +11 28 15.3 20.9   608 – Haleakala-AMOS MPS 52756
2002 02 08.52277 09 13 55.17 +11 28 17.2 21.0   608 – Haleakala-AMOS MPS 52756
2002 02 11.23914 09 10 58.62 +11 33 02.7 19.3   704 – Lincoln Laboratory ETS, New Mexico MPS 55588
2002 02 11.25326 09 10 57.66 +11 33 03.8 19.7   704 – Lincoln Laboratory ETS, New Mexico MPS 55588
2002 02 11.26738 09 10 56.72 +11 33 05.5 19.6   704 – Lincoln Laboratory ETS, New Mexico MPS 55588
2002 02 11.28150 09 10 55.78 +11 33 07.5 19.7   704 – Lincoln Laboratory ETS, New Mexico MPS 55588
2002 02 11.29562 09 10 54.83 +11 33 08.2 19.6   704 – Lincoln Laboratory ETS, New Mexico MPS 55588
2002 02 16.29666 09 05 39.37 +11 42 14.9 20.2   644 – Palomar Mountain/NEAT MPS 52756
2002 02 16.31650 09 05 38.10 +11 42 17.5 20.1   644 – Palomar Mountain/NEAT MPS 52756
2002 02 16.33844 09 05 36.73 +11 42 19.9 19.9   644 – Palomar Mountain/NEAT MPS 52756
2002 02 20.25056 09 01 45.90 +11 49 20.0 19.8   704 – Lincoln Laboratory ETS, New Mexico MPS 55588
2002 02 20.26464 09 01 45.05 +11 49 20.1 20.0   704 – Lincoln Laboratory ETS, New Mexico MPS 55588
2002 02 20.27872 09 01 44.32 +11 49 22.2 19.7   704 – Lincoln Laboratory ETS, New Mexico MPS 55588
2002 03 05.21663 08 51 37.99 +12 08 34.7 20.5   644 – Palomar Mountain/NEAT MPS 55588
2002 03 05.23932 08 51 37.14 +12 08 35.7 20.7   644 – Palomar Mountain/NEAT MPS 55588
2002 03 05.26040 08 51 36.37 +12 08 37.5 20.3   644 – Palomar Mountain/NEAT MPS 55588
2006 04 21.25807 13 55 26.03 -23 03 02.3 19.4 R 809 – European Southern Observatory, La Silla MPS 270046
2006 04 21.27416 13 55 25.03 -23 02 57.0 19.6 R 809 – European Southern Observatory, La Silla MPS 270046
2006 04 21.27952 13 55 24.67 -23 02 55.3 19.6 R 809 – European Southern Observatory, La Silla MPS 270046
2008 12 21.50354 09 10 29.60 +15 53 52.1 20.4 V G96 – Mt. Lemmon Survey MPS 270538
2008 12 21.50882 09 10 29.49 +15 53 51.2 20.6 V G96 – Mt. Lemmon Survey MPS 270538
2008 12 21.51409 09 10 29.38 +15 53 50.6 20.5 V G96 – Mt. Lemmon Survey MPS 270538
2008 12 21.51938 09 10 29.35 +15 53 49.8 20.4 V G96 – Mt. Lemmon Survey MPS 270538
2008 12 22.46307 09 10 15.23 +15 51 46.4 20.3 V 691 – Steward Observatory, Kitt Peak-Spacewatch MPS 270538
2008 12 22.47865 09 10 14.96 +15 51 44.6 20.4 V 691 – Steward Observatory, Kitt Peak-Spacewatch MPS 270538
2008 12 22.49423 09 10 14.66 +15 51 42.6 20.3 V 691 – Steward Observatory, Kitt Peak-Spacewatch MPS 270538
2009 01 07.49073 09 01 34.95 +15 32 15.1 21.0 V 691 – Steward Observatory, Kitt Peak-Spacewatch MPS 271729
2009 01 07.50641 09 01 34.14 +15 32 13.9 20.0 V 691 – Steward Observatory, Kitt Peak-Spacewatch MPS 271729
2009 01 07.52209 09 01 33.37 +15 32 13.2 20.2 V 691 – Steward Observatory, Kitt Peak-Spacewatch MPS 271729
2009 01 16.43042 08 53 27.06 +15 32 14.8 20.0 V G96 – Mt. Lemmon Survey MPS 272288
2009 01 16.43556 08 53 26.77 +15 32 15.1 20.0 V G96 – Mt. Lemmon Survey MPS 272288
2009 01 16.44078 08 53 26.41 +15 32 15.1 20.2 V G96 – Mt. Lemmon Survey MPS 272288
2009 01 16.44594 08 53 26.12 +15 32 15.2 20.2 V G96 – Mt. Lemmon Survey MPS 272288
2009 01 22.27414 08 47 16.68 +15 35 11.6 19.6   704 – Lincoln Laboratory ETS, New Mexico MPS 272288
2009 01 22.28659 08 47 15.70 +15 35 13.2 20.0   704 – Lincoln Laboratory ETS, New Mexico MPS 272288
2009 01 22.29924 08 47 14.89 +15 35 12.4 20.2   704 – Lincoln Laboratory ETS, New Mexico MPS 272288
2009 01 22.31174 08 47 14.01 +15 35 13.7 19.8   704 – Lincoln Laboratory ETS, New Mexico MPS 272288
2009 02 01.25646 08 36 05.72 +15 42 52.0 19.8 V G96 – Mt. Lemmon Survey MPS 272288
2009 02 01.26197 08 36 05.32 +15 42 52.1 19.9 V G96 – Mt. Lemmon Survey MPS 272288
2009 02 01.26752 08 36 04.96 +15 42 52.4 19.9 V G96 – Mt. Lemmon Survey MPS 272288
2009 02 01.27303 08 36 04.57 +15 42 52.7 19.8 V G96 – Mt. Lemmon Survey MPS 272288
2009 02 28.20811 08 13 01.05 +15 54 36.6 20.7 V 703 – Catalina Sky Survey MPS 278562
2009 02 28.21529 08 13 00.91 +15 54 35.0 20.2 V 703 – Catalina Sky Survey MPS 278562
2009 02 28.22266 08 13 00.69 +15 54 35.8 20.6 V 703 – Catalina Sky Survey MPS 278562
2009 02 28.23001 08 13 00.44 +15 54 34.5 20.8 V 703 – Catalina Sky Survey MPS 278562
2011 10 21.95434 03 14 41.96 +27 42 46.7 19.2 R B42 – Vitebsk MPS 396243
2011 10 21.95715 03 14 41.84 +27 42 46.0 19.2 R B42 – Vitebsk MPS 396243
2011 10 21.95997 03 14 41.61 +27 42 45.3 19.1 R B42 – Vitebsk MPS 396243
2011 10 21.96694 03 14 41.27 +27 42 45.4 19.1 R B42 – Vitebsk MPS 396243
2011 10 21.97296 03 14 41.01 +27 42 46.1 19.1 R B42 – Vitebsk MPS 396243
2011 10 24.54028 03 12 25.969 +27 37 26.81 20.6 w F51 – Pan-STARRS 1, Haleakala MPS 396243
2011 10 24.55557 03 12 25.099 +27 37 24.57 20.6 w F51 – Pan-STARRS 1, Haleakala MPS 396243
2011 10 24.57076 03 12 24.238 +27 37 22.29 20.6 w F51 – Pan-STARRS 1, Haleakala MPS 396243
2011 10 24.58597 03 12 23.379 +27 37 19.99 20.6 w F51 – Pan-STARRS 1, Haleakala MPS 396243
2011 11 02.31435 03 03 44.67 +27 08 53.2 20.0 V G96 – Mt. Lemmon Survey MPS 398144
2011 11 02.32361 03 03 44.06 +27 08 50.8 20.0 V G96 – Mt. Lemmon Survey MPS 398144
2011 11 02.33294 03 03 43.45 +27 08 48.5 19.8 V G96 – Mt. Lemmon Survey MPS 398144
2011 11 02.34226 03 03 42.84 +27 08 46.1 19.9 V G96 – Mt. Lemmon Survey MPS 398144
2011 11 15.32543 02 49 39.210 +26 00 22.32 19.9 i F51 – Pan-STARRS 1, Haleakala MPS 399944
2011 11 15.33776 02 49 38.399 +26 00 17.84 20.1 i F51 – Pan-STARRS 1, Haleakala MPS 399944
2012 12 23.63238 12 52 33.667 -10 55 20.02 21.1 w F51 – Pan-STARRS 1, Haleakala MPS 448738
2012 12 23.63767 12 52 34.074 -10 55 23.54 21.5 w F51 – Pan-STARRS 1, Haleakala MPS 448738
2012 12 23.64295 12 52 34.515 -10 55 27.14 21.5 w F51 – Pan-STARRS 1, Haleakala MPS 448738
2013 02 11.36446 13 41 53.89 -18 41 00.7 18.3 K W91 – VHS-VISTA, Cerro Paranal MPS 678547
2013 02 11.37390 13 41 54.16 -18 41 04.6 19.7 Y W91 – VHS-VISTA, Cerro Paranal MPS 678547
2013 02 11.37610 13 41 54.21 -18 41 05.5 20.1 Y W91 – VHS-VISTA, Cerro Paranal MPS 678547
2013 03 14.73149 13 41 39.98 -20 52 09.1 20.1 V E12 – Siding Spring Survey MPS 460475
2013 03 14.74500 13 41 39.58 -20 52 10.3 20.1 V E12 – Siding Spring Survey MPS 460475
2013 03 14.75855 13 41 39.12 -20 52 11.4 19.9 V E12 – Siding Spring Survey MPS 460475
2013 03 14.77206 13 41 38.65 -20 52 11.6 19.6 V E12 – Siding Spring Survey MPS 460475
2013 03 20.51868 13 38 14.397 -20 54 21.51 20.5 g F51 – Pan-STARRS 1, Haleakala MPS 461596
2013 03 20.52963 13 38 13.933 -20 54 21.32 20.5 g F51 – Pan-STARRS 1, Haleakala MPS 461596
2013 04 04.65900 13 25 32.12 -20 21 46.0 19.5 V E12 – Siding Spring Survey MPS 462609
2013 04 04.67179 13 25 31.26 -20 21 42.2 19.8 V E12 – Siding Spring Survey MPS 462609
2013 04 04.68465 13 25 30.54 -20 21 39.6 19.8 V E12 – Siding Spring Survey MPS 462609
2013 04 04.69737 13 25 29.74 -20 21 36.1 19.4 V E12 – Siding Spring Survey MPS 462609
2013 04 12.58891 13 17 42.32 -19 44 23.5 19.7 V E12 – Siding Spring Survey MPS 464937
2013 04 12.60307 13 17 41.46 -19 44 20.0 19.6 V E12 – Siding Spring Survey MPS 464937
2013 04 12.61722 13 17 40.56 -19 44 15.6 19.1 V E12 – Siding Spring Survey MPS 464937
2013 04 12.63146 13 17 39.66 -19 44 09.9 19.5 V E12 – Siding Spring Survey MPS 464937
2013 04 22.62633 13 08 03.55 -18 43 07.1 19.6 V E12 – Siding Spring Survey MPS 465469
2013 04 22.63781 13 08 03.08 -18 43 02.1 19.9 V E12 – Siding Spring Survey MPS 465469
2013 04 22.64935 13 08 02.43 -18 42 57.6 19.5 V E12 – Siding Spring Survey MPS 465469
2013 04 22.66074 13 08 01.78 -18 42 51.7 19.4 V E12 – Siding Spring Survey MPS 465469
2013 05 04.54115 12 58 43.89 -17 22 24.8 19.3 V E12 – Siding Spring Survey MPS 467421
2013 05 04.55321 12 58 43.42 -17 22 18.8 19.9 V E12 – Siding Spring Survey MPS 467421
2013 05 04.56537 12 58 42.92 -17 22 13.2 19.6 V E12 – Siding Spring Survey MPS 467421
2013 05 04.57736 12 58 42.42 -17 22 10.3 19.3 V E12 – Siding Spring Survey MPS 467421
